TimePDT,TemperatureF,Dew PointF,Humidity,Sea Level PressureIn,VisibilityMPH,Wind Direction,Wind SpeedMPH,Gust SpeedMPH,PrecipitationIn,Events,Conditions,WindDirDegrees,DateUTC
12:53 AM,55.9,50.0,80,30.06,10.0,West,12.7,-,N/A,,Clear,280,2013-07-10 07:53:00
1:53 AM,54.0,50.0,86,30.05,10.0,West,11.5,-,N/A,,Clear,280,2013-07-10 08:53:00
2:53 AM,53.1,50.0,89,30.05,10.0,WNW,12.7,-,N/A,,Clear,290,2013-07-10 09:53:00
3:53 AM,53.1,50.0,89,30.04,10.0,West,9.2,-,N/A,,Clear,280,2013-07-10 10:53:00
4:53 AM,53.1,50.0,89,30.05,10.0,West,11.5,-,N/A,,Clear,280,2013-07-10 11:53:00
5:53 AM,52.0,50.0,93,30.05,10.0,WNW,5.8,-,N/A,,Partly Cloudy,290,2013-07-10 12:53:00
6:05 AM,52.0,50.0,93,30.05,10.0,West,4.6,-,N/A,,Mostly Cloudy,280,2013-07-10 13:05:00
6:53 AM,54.0,51.1,90,30.06,10.0,WNW,4.6,-,N/A,,Overcast,290,2013-07-10 13:53:00
7:53 AM,55.0,51.1,86,30.06,10.0,NW,10.4,-,N/A,,Overcast,310,2013-07-10 14:53:00
8:06 AM,55.0,51.1,86,30.06,10.0,NW,8.1,-,N/A,,Overcast,320,2013-07-10 15:06:00
8:53 AM,57.0,51.1,81,30.07,10.0,NW,10.4,-,N/A,,Overcast,310,2013-07-10 15:53:00
9:51 AM,59.0,51.8,77,30.07,10.0,NW,8.1,-,N/A,,Scattered Clouds,320,2013-07-10 16:51:00
9:53 AM,59.0,52.0,78,30.08,10.0,WNW,9.2,-,N/A,,Partly Cloudy,300,2013-07-10 16:53:00
10:53 AM,61.0,52.0,72,30.08,10.0,NW,11.5,-,N/A,,Partly Cloudy,310,2013-07-10 17:53:00
11:53 AM,61.0,52.0,72,30.08,10.0,NNW,11.5,-,N/A,,Clear,330,2013-07-10 18:53:00
12:53 PM,61.0,51.1,70,30.07,10.0,NW,11.5,21.9,N/A,,Clear,320,2013-07-10 19:53:00
1:53 PM,61.0,50.0,67,30.06,10.0,NW,13.8,26.5,N/A,,Clear,310,2013-07-10 20:53:00
2:53 PM,61.0,48.9,64,30.06,10.0,NW,16.1,24.2,N/A,,Clear,310,2013-07-10 21:53:00
3:53 PM,61.0,48.0,62,30.06,10.0,NW,12.7,26.5,N/A,,Clear,310,2013-07-10 22:53:00
4:53 PM,60.1,46.9,62,30.05,10.0,NW,13.8,25.3,N/A,,Clear,320,2013-07-10 23:53:00
5:53 PM,59.0,46.0,62,30.03,10.0,NW,13.8,27.6,N/A,,Clear,320,2013-07-11 00:53:00
6:53 PM,59.0,48.0,67,30.01,10.0,NW,13.8,21.9,N/A,,Clear,320,2013-07-11 01:53:00
7:53 PM,57.9,46.9,67,30.01,10.0,WNW,12.7,24.2,N/A,,Clear,290,2013-07-11 02:53:00
8:53 PM,55.9,46.0,69,30.00,10.0,WNW,10.4,-,N/A,,Clear,290,2013-07-11 03:53:00
9:53 PM,55.0,45.0,69,30.00,10.0,West,12.7,-,N/A,,Clear,280,2013-07-11 04:53:00
10:53 PM,55.0,43.0,64,30.00,10.0,WNW,13.8,21.9,N/A,,Clear,290,2013-07-11 05:53:00
11:53 PM,55.0,44.1,67,30.00,10.0,West,16.1,24.2,N/A,,Clear,280,2013-07-11 06:53:00